Погода в Термезе

Погода в Термезе : погода сейчас, прогноз погоды и архив. Всё, что Вы хотите узнать о погоде в Термезе!

Поиск расширенной информации на нашем сайте:

Другие новости

Новости СМИ2

Главная страница сайта

Новости сайта

03.07.2017

Напоминаем, что на нашем специализированном сайте Метеоцентр.Азия вы можете получить высокодетализированные автоматические прогнозы погоды по пунктам России, СНГ и мира в авиационном формате (включающие направление и скорость ветра, видимость, явления погоды, количество и форму облачности, нижнюю и верхнюю границу облачности).


Погода в Термезе - сегодня

Время (UTC), дата Ветер
(°,м/с) 
Видим.   Явления Облачность Т
(°С)
Тd
(°С)
f(%) Тe
(°С)
Pmin
(гПа)
dP
(гПа)
Po
(мм)
O2
(г/м3)
Тmin Tmax R s Состояние
почвы
00 19.09.17 060 (СВ) 10 км    ясно 
+13.9 +8.5 70 +15  1014.6  0.1  734  280           
03 19.09.17 020 (С) 10 км    ясно 
+17.5 +9.5 59 +20  1015.1  734  276           
06 19.09.17 170 (Ю) 10 км    ясно 
+28.5 +0.4 16 +29  1014.3  0.4  735  268  +13.1         
09 19.09.17 270 (З) 10 км    ясно 
+32.5 -0.2 12 +33  1011.4  -2.4  733  264           
12 19.09.17 200 (Ю) 10 км    ясно 
+32.6 -0.5 12 +33  1009.5  -1.8  731  263           
15 19.09.17 170 (Ю) 10 км    ясно 
+25 +7.4 32 +25  1010.7  0.5  732  269    +33.6       
18 19.09.17 тихо ()   10 км    ясно 
+22.2 +7.4 38 +22  1010.7  -0.5  731  271    +33.6       
21 19.09.17 тихо ()   10 км    ясно 
+18.6 +6.8 46 +19  1011.3  0.2  732  275           
00 20.09.17 тихо ()   10 км    ясно 
+16.3 +5.5 49 +16  1011.8  0.2  732  277           
03 20.09.17 210 (ЮЗ) 10 км    ясно 
+17.6 +7.3 51 +18  1012.9  1.2  733  276           
06 20.09.17 260 (З) 10 км    ясно 
+25.4 +8.6 34 +25  1012.1  0.2  733  269  +14.3         
09 20.09.17 270 (З) 10 км    5/0 верхняя 
[Ci fib]
+31.2 +6.2 21 +31  1009.4  -2  731  263           
12 20.09.17 290 (З) 10 км    5/0 верхняя 
[Ci fib]
+31.8 +6.8 21 +32  1007.8  -1.5  730  262           
15 20.09.17 220 (ЮЗ) 10 км    3/0 верхняя 
[Ci fib]
+24.5 +6.4 31 +25  1009.2  0.6  731  269    +33.1       
18 20.09.17 180 (Ю) 10 км    3/0 верхняя 
[Ci fib]
+20.5 +3.6 33 +21  1009.6  -0.2  730  273    +33.1       
21 20.09.17 090 (В) 10 км    3/0 верхняя 
[Ci fib]
+17.2 +4.8 44 +18  1010.2  0.2  731  276           
00 21.09.17 070 (В) 10 км    ясно 
+13.9 +8.4 69 +14  1010.9  0.3  731  279           
03 21.09.17 040 (СВ) 10 км    4/0 верхняя 
[Ci fib]
+17.5 +9.5 59 +20  1011.7  1.3  732  275           
06 21.09.17 220 (ЮЗ) 10 км    4/0 верхняя 
[Ci fib]
+27.9 +3.8 21 +28  1010.9  0.3  732  267  +13.1         
09 21.09.17 250 (З) 10 км    4/0 верхняя 
[Ci fib]
+32.5 +3 15 +33  1008.1  -2.2  730  263           
12 21.09.17 тихо ()   10 км    6/0 верхняя 
[Ci fib]
+32.9 +6.7 20 +33  1006.7  -1.2  729  261           
15 21.09.17 200 (Ю) 10 км    4/0 верхняя 
[Ci fib]
+24.9 +6.7 31 +25  1008.4  0.7  730  268    +33.6       
18 21.09.17 160 (Ю) 10 км    ясно 
+21.1 +6.2 38 +21  1008.9  0.1  730  272    +33.6       
21 21.09.17 080 (В) 10 км    ясно 
+17.4 +7.3 51 +18  1009.7  0.4  730  275           
00 22.09.17 120 (ЮВ) 10 км    ясно 
+15.5 +8.6 63 +16  1010.2  0.2  731  277           
Время (UTC), дата Ветер
(°,м/с) 
Видим.   Явления Облачность Т
(°С)
Тd
(°С)
f(%) Тe
(°С)
Pmin
(гПа)
dP
(гПа)
Po
(мм)
O2
(г/м3)
Тmin Tmax R s Состояние
почвы

Для получения пояснительной информации подведите курсор к названию столбца.

ПОГОДА в Термезе - архив

Всё, что Вы хотите узнать о погоде в Термезе - удобно и подробно!

Выберите нужную дату (начиная с 1 января 2015* года) и нажмите кнопку "Найти".
Будут отображены архивные сводки погоды по пункту Термез, начиная с указанной даты.


Отображать данные в формате CSV (для использования в таблицах Excel)


Внимание! Наш архив погоды предназначен исключительно для личного некоммерческого использования в познавательных целях. Если Вам необходимы официальные справки о состоянии погоды (для производственных, юридических, коммерческих и т.п. целей), обращайтесь в органы Росгидромета.

*Примечание: данная дата относится к архиву по метеостанциям СССР (Россия, СНГ, Балтия).
Архив по метеостанциям Зарубежной Европы и Азии (кроме Китая) хранится 10 дней, по другим регионам земного шара (Китай, Африка, Америка, Австралия, Океания) - 1 день.

Термез - район местоположения метеостанции


Название, широта, долгота, высота метеостанции:
Термез 37.2°ш. 67.3°д. 310 м над ур. моря [Узбекистан]

Дополнительная информация

В oтличие oт бoльшинства пoгoдных сайтoв мы публикуем пoдрoбную метеoинфoрмацию в детальнoм прoфессиoнальнoм фoрмате.

Характеристики температуры и влажнoсти вoздуха измеряются на высoте 2 м в тени вдали oт зданий и деревьев.
Скoрoсть ветра измеряется на высoте 10 м (на урoвне рoста челoвека скoрoсть ветра ниже в 1.5-2 раза). Если метеoстанция нахoдится в гoрoде или в лесу, тo скoрoсть ветра занижена на 2-4 м/с пo сравнению с oткрытым местoм. Скoрoсть ветра над акватoриями крупных рек и oзёр, а также на вершинах хoлмoв на 2-5 м/с выше, чем в oбычных услoвиях.
Атмoсфернoе давление в разных тoчках местнoсти мoжет значительнo oтличаться oт давления на метеoстанции, в зависимoсти oт услoвий рельефа (при пoдъёме на 10 м давление пoнижается примернo на 1 мм рт.ст.).